Starlink 1448

operational
NORAD ID: 45665 Int'l Des: 2020-035 Owner: SPXS Country: US Constellation: starlink
LEOCIRCULARSTARLINK_TYPE

关于 Starlink 1448

正在加载描述...

实时位置

正在加载3D地球...

即将过境

高度历史

Altitude vs Time

uPlot chart will show altitude changes over time

两行轨道根数

1 45665U 20035J 25304.64915226 -.00000938 00000-0 -44049-4 0 9992
2 45665 53.0538 285.9027 0001514 90.6113 269.5049 15.06399606299275
Epoch: Oct 31, 2025 • Age: 20 hours

当前状态

高度 548.0 km
速度 7.59 km/s
星下点 0.32°N, 111.28°W
发射日期 Jun 4, 2020
运行时间 5.4 years
类型 internet

技术详情

分类 Payload
质量 260.00 kg
干质量 248.00 kg
总质量 260.00 kg
长度 0.20 m
直径 2.80 m
跨度 9.00 m
形状 Box + pan
制造商 SPXS
平台类型 Starlink
阶段状态 In Orbit
所有者/国家 SPXS/US

大型星座

Loading constellations...